HO-68 - Orbit

View from above orbital plane
View from above orbital plane
View from above satellite
View from above satellite

Ground track
Ground track

The orbit data is extracted from the following two-line orbital elements,

1 36122U 09072B   13144.03172315 -.00000044  00000-0  00000+0 0  5755
2 36122 100.3080 201.6925 0007860 051.1340 309.0474 13.16304325165230
Epoch (UTC): 24 May 2013 00:45:40
Eccentricity: 0.0007860
inclination: 100.3080°
perigee height: 1193 km
apogee height: 1205 km
right ascension of ascending node: 201.6925°
argument of perigee: 51.1340°
revolutions per day: 13.16304325
mean anomaly at epoch: 309.0474°
orbit number at epoch: 16523

The dashed part of the orbit path shows where the satellite is in the earth's shadow,  

Developed and maintained by Chris Peat, Heavens-Above GmbH. Please read the updated FAQ before sending e-mail. Imprint. DLR